| time (UTC) | temp F | wind direction | speed MPH | gust MPH | rain 1hr in | rain 24hr in | rain mn in | humidity % | barometer mb |
| 20260902074015 | 65 | 133 | 0.0 | 2.0 | 0.00 | 0.00 | 0.00 | 59 | 1024.2 |
| 20260902073015 | 64 | 133 | 1.0 | 2.0 | 0.00 | 0.00 | 0.00 | 59 | 1024.1 |
| 20260902072015 | 65 | 133 | 0.0 | 1.0 | 0.00 | 0.00 | 0.00 | 59 | 1024.1 |
| 20260902071016 | 65 | 133 | 0.0 | 1.0 | 0.00 | 0.00 | 0.00 | 59 | 1024.0 |
| 20260902070036 | 65 | 133 | 0.0 | 1.0 | 0.00 | 0.00 | 0.00 | 60 | 1024.1 |
| 20260902065017 | 66 | 133 | 0.0 | 1.0 | 0.00 | 0.00 | 0.00 | 61 | 1024.1 |
| 20260902064017 | 66 | 133 | 0.0 | 1.0 | 0.00 | 0.00 | 0.00 | 60 | 1024.1 |
| 20260902063035 | 66 | 133 | 0.0 | 1.0 | 0.00 | 0.00 | 0.00 | 59 | 1024.1 |
| 20260902062015 | 66 | 127 | 0.0 | 1.0 | 0.00 | 0.00 | 0.00 | 59 | 1024.0 |
| 20260902061016 | 66 | 139 | 0.0 | 1.0 | 0.00 | 0.00 | 0.00 | 61 | 1024.0 |
| 20260902060016 | 67 | 139 | 0.0 | 2.0 | 0.00 | 0.00 | 0.00 | 63 | 1024.0 |
| 20260902055016 | 67 | 140 | 0.0 | 2.0 | 0.00 | 0.00 | 0.00 | 63 | 1023.9 |
| 20260902054037 | 68 | 139 | 0.0 | 2.0 | 0.00 | 0.00 | 0.00 | 62 | 1023.9 |
| 20260902053017 | 68 | 135 | 1.0 | 3.0 | 0.00 | 0.00 | 0.00 | 61 | 1023.9 |
| 20260902052015 | 68 | 141 | 2.0 | 4.0 | 0.00 | 0.00 | 0.00 | 60 | 1023.9 |
| 20260902051015 | 69 | 140 | 1.0 | 4.0 | 0.00 | 0.00 | 0.00 | 59 | 1023.9 |
| 20260902050016 | 69 | 146 | 1.0 | 5.0 | 0.00 | 0.00 | 0.00 | 58 | 1023.9 |
| 20260902045016 | 69 | 137 | 2.0 | 4.0 | 0.00 | 0.00 | 0.00 | 57 | 1023.9 |
| 20260902044016 | 69 | 141 | 2.0 | 4.0 | 0.00 | 0.00 | 0.00 | 56 | 1024.0 |
| 20260902043017 | 69 | 135 | 1.0 | 4.0 | 0.00 | 0.00 | 0.00 | 56 | 1024.1 |
| 20260902042035 | 70 | 140 | 1.0 | 4.0 | 0.00 | 0.00 | 0.00 | 56 | 1024.2 |
| 20260902041015 | 70 | 138 | 2.0 | 4.0 | 0.00 | 0.00 | 0.00 | 55 | 1024.2 |
| 20260902040015 | 71 | 137 | 2.0 | 7.0 | 0.00 | 0.00 | 0.00 | 55 | 1024.2 |
| 20260902035016 | 71 | 139 | 1.0 | 4.0 | 0.00 | 0.00 | 0.00 | 54 | 1024.2 |
| 20260902034016 | 72 | 140 | 1.0 | 5.0 | 0.00 | 0.00 | 0.00 | 54 | 1024.2 |
| 20260902033017 | 72 | 148 | 1.0 | 3.0 | 0.00 | 0.00 | 0.00 | 53 | 1024.1 |
| 20260902032017 | 73 | 140 | 1.0 | 4.0 | 0.00 | 0.00 | 0.00 | 53 | 1023.9 |
| 20260902031015 | 73 | 137 | 2.0 | 6.0 | 0.00 | 0.00 | 0.00 | 52 | 1023.9 |
| 20260902030015 | 74 | 131 | 2.0 | 7.0 | 0.00 | 0.00 | 0.00 | 51 | 1023.8 |
| 20260902025016 | 74 | 141 | 2.0 | 7.0 | 0.00 | 0.00 | 0.00 | 51 | 1023.5 |
| 20260902024016 | 73 | 136 | 2.0 | 6.0 | 0.00 | 0.01 | 0.00 | 51 | 1023.2 |
| 20260902023016 | 72 | 86 | 0.0 | 1.0 | 0.00 | 0.01 | 0.00 | 54 | 1023.0 |
| 20260902022017 | 72 | 0.0 | 0.0 | 0.00 | 0.01 | 0.00 | 53 | 1023.1 | |
| 20260902021017 | 73 | 0.0 | 0.0 | 0.00 | 0.01 | 0.00 | 52 | 1023.0 | |
| 20260902020015 | 73 | 86 | 0.0 | 1.0 | 0.00 | 0.01 | 0.00 | 52 | 1023.0 |
| 20260902015035 | 74 | 86 | 0.0 | 1.0 | 0.00 | 0.01 | 0.00 | 51 | 1022.9 |
| 20260902014016 | 75 | 0.0 | 0.0 | 0.00 | 0.01 | 0.00 | 50 | 1022.9 | |
| 20260902013016 | 75 | 0.0 | 0.0 | 0.00 | 0.01 | 0.00 | 49 | 1022.9 | |
| 20260902012016 | 76 | 0.0 | 0.0 | 0.00 | 0.01 | 0.00 | 47 | 1022.9 | |
| 20260902011017 | 77 | 86 | 0.0 | 1.0 | 0.00 | 0.01 | 0.00 | 45 | 1022.9 |
| 20260902010037 | 77 | 84 | 0.0 | 1.0 | 0.00 | 0.01 | 0.00 | 43 | 1022.8 |
| 20260902005035 | 78 | 0.0 | 0.0 | 0.00 | 0.01 | 0.00 | 42 | 1022.8 | |
| 20260902004015 | 79 | 70 | 0.0 | 1.0 | 0.00 | 0.01 | 0.00 | 41 | 1022.8 |
| 20260902003016 | 80 | 99 | 0.0 | 1.0 | 0.00 | 0.01 | 0.00 | 41 | 1022.8 |
| 20260902002016 | 81 | 0.0 | 0.0 | 0.00 | 0.01 | 0.00 | 39 | 1022.8 | |
| 20260902001016 | 81 | 45 | 0.0 | 1.0 | 0.00 | 0.01 | 0.00 | 38 | 1022.9 |
| 20260902000017 | 82 | 39 | 0.0 | 5.0 | 0.00 | 0.01 | 0.00 | 37 | 1022.9 |
| 20260901235015 | 83 | 190 | 0.0 | 3.0 | 0.00 | 0.01 | 0.00 | 34 | 1022.8 |
| 20260901234035 | 84 | 0.0 | 0.0 | 0.00 | 0.01 | 0.00 | 33 | 1022.8 | |
| 20260901233015 | 85 | 86 | 0.0 | 2.0 | 0.00 | 0.01 | 0.00 | 31 | 1022.8 |
| 20260901232016 | 86 | 128 | 0.0 | 1.0 | 0.00 | 0.01 | 0.00 | 31 | 1022.7 |
| 20260901231016 | 86 | 262 | 0.0 | 1.0 | 0.00 | 0.01 | 0.00 | 31 | 1022.7 |
| 20260901230016 | 86 | 48 | 0.0 | 1.0 | 0.00 | 0.01 | 0.00 | 31 | 1022.7 |
| 20260901225017 | 87 | 253 | 0.0 | 2.0 | 0.00 | 0.01 | 0.00 | 30 | 1022.7 |
| 20260901224014 | 88 | 0.0 | 0.0 | 0.00 | 0.01 | 0.00 | 30 | 1022.8 | |
| 20260901223015 | 86 | 96 | 0.0 | 2.0 | 0.00 | 0.01 | 0.00 | 30 | 1022.9 |
| 20260901222015 | 87 | 125 | 0.0 | 2.0 | 0.00 | 0.01 | 0.00 | 31 | 1022.9 |
| 20260901221016 | 85 | 55 | 0.0 | 2.0 | 0.00 | 0.01 | 0.00 | 33 | 1022.9 |
| 20260901220016 | 85 | 255 | 0.0 | 1.0 | 0.00 | 0.01 | 0.00 | 32 | 1023.1 |
| 20260901215016 | 85 | 273 | 0.0 | 1.0 | 0.00 | 0.01 | 0.00 | 32 | 1023.2 |
| 20260901214017 | 86 | 250 | 0.0 | 1.0 | 0.00 | 0.01 | 0.00 | 31 | 1023.4 |
| 20260901213035 | 86 | 102 | 0.0 | 1.0 | 0.00 | 0.01 | 0.00 | 32 | 1023.4 |
| 20260901212035 | 86 | 0.0 | 0.0 | 0.00 | 0.01 | 0.00 | 30 | 1023.5 | |
| 20260901211036 | 86 | 102 | 0.0 | 1.0 | 0.00 | 0.01 | 0.00 | 30 | 1023.6 |
| 20260901210016 | 87 | 102 | 0.0 | 1.0 | 0.00 | 0.01 | 0.00 | 30 | 1023.7 |
| 20260901205016 | 87 | 102 | 0.0 | 1.0 | 0.00 | 0.01 | 0.00 | 29 | 1023.8 |
| 20260901204037 | 88 | 138 | 1.0 | 4.0 | 0.00 | 0.01 | 0.00 | 28 | 1023.9 |
| 20260901203017 | 87 | 133 | 1.0 | 2.0 | 0.00 | 0.01 | 0.00 | 29 | 1024.0 |
| 20260901202015 | 89 | 238 | 2.0 | 4.0 | 0.00 | 0.01 | 0.00 | 27 | 1024.1 |
| 20260901201015 | 89 | 6 | 0.0 | 2.0 | 0.00 | 0.01 | 0.00 | 29 | 1024.2 |
| 20260901200036 | 88 | 255 | 1.0 | 4.0 | 0.00 | 0.01 | 0.00 | 30 | 1024.3 |
| 20260901195016 | 87 | 305 | 0.0 | 2.0 | 0.00 | 0.01 | 0.00 | 30 | 1024.4 |
| 20260901194056 | 86 | 313 | 0.0 | 2.0 | 0.00 | 0.01 | 0.00 | 30 | 1024.5 |
| 20260901193017 | 85 | 101 | 0.0 | 1.0 | 0.00 | 0.01 | 0.00 | 32 | 1024.6 |
| 20260901192017 | 84 | 267 | 1.0 | 3.0 | 0.00 | 0.01 | 0.00 | 32 | 1024.8 |
| 20260901191015 | 84 | 219 | 0.0 | 2.0 | 0.00 | 0.01 | 0.00 | 33 | 1024.9 |
| 20260901190015 | 82 | 314 | 0.0 | 1.0 | 0.00 | 0.01 | 0.00 | 36 | 1024.9 |
| 20260901185016 | 81 | 34 | 0.0 | 4.0 | 0.00 | 0.01 | 0.00 | 36 | 1025.1 |
| 20260901184016 | 81 | 277 | 1.0 | 6.0 | 0.00 | 0.01 | 0.00 | 36 | 1025.3 |
| 20260901183016 | 80 | 248 | 1.0 | 3.0 | 0.00 | 0.01 | 0.00 | 39 | 1025.4 |
| 20260901182037 | 79 | 136 | 0.0 | 1.0 | 0.00 | 0.01 | 0.00 | 41 | 1025.5 |
| 20260901181015 | 78 | 279 | 0.0 | 2.0 | 0.00 | 0.01 | 0.00 | 41 | 1025.8 |
| 20260901180015 | 77 | 174 | 0.0 | 2.0 | 0.00 | 0.01 | 0.00 | 43 | 1025.9 |
| 20260901175055 | 76 | 142 | 0.0 | 3.0 | 0.00 | 0.01 | 0.00 | 42 | 1026.0 |
| 20260901174017 | 75 | 156 | 1.0 | 2.0 | 0.00 | 0.01 | 0.00 | 44 | 1026.1 |
| 20260901173016 | 74 | 268 | 1.0 | 9.0 | 0.00 | 0.01 | 0.00 | 50 | 1026.3 |
| 20260901172017 | 72 | 121 | 0.0 | 2.0 | 0.00 | 0.01 | 0.00 | 53 | 1026.4 |
| 20260901171017 | 71 | 288 | 1.0 | 3.0 | 0.00 | 0.01 | 0.00 | 56 | 1026.5 |
| 20260901170015 | 70 | 139 | 1.0 | 3.0 | 0.00 | 0.01 | 0.00 | 57 | 1026.6 |
| 20260901165015 | 70 | 149 | 0.0 | 2.0 | 0.00 | 0.01 | 0.00 | 58 | 1026.5 |
| 20260901164016 | 70 | 128 | 1.0 | 4.0 | 0.00 | 0.01 | 0.00 | 58 | 1026.4 |
| 20260901163016 | 69 | 163 | 0.0 | 2.0 | 0.00 | 0.01 | 0.00 | 60 | 1026.4 |
| 20260901162016 | 69 | 280 | 1.0 | 4.0 | 0.00 | 0.01 | 0.00 | 61 | 1026.5 |
| 20260901161017 | 68 | 281 | 0.0 | 2.0 | 0.00 | 0.01 | 0.00 | 62 | 1026.5 |
| 20260901160017 | 68 | 271 | 0.0 | 2.0 | 0.00 | 0.01 | 0.00 | 63 | 1026.6 |
| 20260901155015 | 67 | 154 | 0.0 | 2.0 | 0.00 | 0.01 | 0.00 | 64 | 1026.6 |
| 20260901154015 | 66 | 139 | 0.0 | 2.0 | 0.00 | 0.01 | 0.00 | 65 | 1026.5 |
| 20260901153016 | 65 | 177 | 0.0 | 1.0 | 0.00 | 0.01 | 0.00 | 68 | 1026.5 |
| 20260901152016 | 65 | 0.0 | 0.0 | 0.00 | 0.01 | 0.00 | 69 | 1026.5 | |
| 20260901151016 | 64 | 0.0 | 0.0 | 0.00 | 0.01 | 0.00 | 72 | 1026.3 | |
| 20260901150017 | 63 | 146 | 0.0 | 1.0 | 0.00 | 0.01 | 0.00 | 76 | 1026.3 |
| 20260901145017 | 62 | 0.0 | 0.0 | 0.00 | 0.01 | 0.00 | 80 | 1026.1 | |
| 20260901144015 | 62 | 0.0 | 0.0 | 0.00 | 0.01 | 0.00 | 81 | 1026.1 | |
| 20260901143015 | 62 | 0.0 | 0.0 | 0.00 | 0.01 | 0.00 | 81 | 1026.0 | |
| 20260901142016 | 61 | 0.0 | 0.0 | 0.00 | 0.01 | 0.00 | 82 | 1026.0 | |
| 20260901141056 | 61 | 0.0 | 0.0 | 0.00 | 0.01 | 0.00 | 82 | 1026.0 | |
| 20260901140016 | 60 | 146 | 0.0 | 1.0 | 0.00 | 0.01 | 0.00 | 81 | 1025.9 |
| 20260901135037 | 60 | 0.0 | 0.0 | 0.00 | 0.01 | 0.00 | 82 | 1025.9 | |
| 20260901134017 | 60 | 0.0 | 0.0 | 0.00 | 0.01 | 0.00 | 82 | 1025.9 | |
| 20260901133015 | 60 | 146 | 0.0 | 1.0 | 0.00 | 0.01 | 0.00 | 82 | 1025.7 |
| 20260901132016 | 59 | 146 | 0.0 | 1.0 | 0.00 | 0.01 | 0.00 | 83 | 1025.6 |
| 20260901131016 | 59 | 174 | 0.0 | 1.0 | 0.00 | 0.01 | 0.00 | 85 | 1025.5 |
| 20260901130016 | 58 | 0.0 | 0.0 | 0.00 | 0.01 | 0.00 | 85 | 1025.3 | |
| 20260901125016 | 58 | 0.0 | 0.0 | 0.00 | 0.01 | 0.00 | 84 | 1025.1 | |
| 20260901124017 | 58 | 0.0 | 0.0 | 0.00 | 0.01 | 0.00 | 84 | 1025.0 | |
| 20260901123014 | 58 | 0.0 | 0.0 | 0.00 | 0.01 | 0.00 | 84 | 1025.0 | |
| 20260901122015 | 58 | 0.0 | 0.0 | 0.00 | 0.01 | 0.00 | 83 | 1024.9 | |
| 20260901121015 | 59 | 0.0 | 0.0 | 0.00 | 0.01 | 0.00 | 83 | 1024.8 | |
| 20260901120016 | 59 | 0.0 | 0.0 | 0.00 | 0.01 | 0.00 | 82 | 1024.8 | |
| 20260901115016 | 60 | 0.0 | 0.0 | 0.00 | 0.01 | 0.00 | 80 | 1024.8 | |
| 20260901114016 | 60 | 290 | 0.0 | 2.0 | 0.00 | 0.01 | 0.00 | 79 | 1024.7 |
| 20260901113017 | 60 | 151 | 0.0 | 4.0 | 0.00 | 0.01 | 0.00 | 78 | 1024.5 |
| 20260901112015 | 60 | 143 | 1.0 | 4.0 | 0.00 | 0.01 | 0.00 | 79 | 1024.5 |
| 20260901111015 | 60 | 137 | 1.0 | 2.0 | 0.00 | 0.01 | 0.00 | 80 | 1024.7 |
| 20260901110035 | 59 | 143 | 0.0 | 2.0 | 0.00 | 0.01 | 0.00 | 81 | 1024.9 |
| 20260901105036 | 59 | 135 | 0.0 | 1.0 | 0.00 | 0.01 | 0.00 | 81 | 1025.1 |
| 20260901104016 | 60 | 132 | 0.0 | 2.0 | 0.00 | 0.01 | 0.00 | 80 | 1025.2 |
| 20260901103017 | 60 | 147 | 0.0 | 1.0 | 0.00 | 0.01 | 0.00 | 80 | 1025.3 |
| 20260901102037 | 59 | 147 | 0.0 | 1.0 | 0.00 | 0.01 | 0.00 | 81 | 1025.5 |
| 20260901101035 | 59 | 147 | 0.0 | 1.0 | 0.00 | 0.01 | 0.00 | 81 | 1025.6 |
| 20260901100015 | 59 | 140 | 1.0 | 3.0 | 0.00 | 0.01 | 0.00 | 81 | 1025.6 |
| 20260901095016 | 59 | 144 | 0.0 | 1.0 | 0.00 | 0.01 | 0.00 | 81 | 1025.7 |
| 20260901094016 | 59 | 145 | 0.0 | 2.0 | 0.00 | 0.01 | 0.00 | 81 | 1026.0 |
| 20260901093016 | 59 | 139 | 0.0 | 2.0 | 0.00 | 0.01 | 0.00 | 81 | 1026.0 |
| 20260901092017 | 60 | 139 | 0.0 | 1.0 | 0.00 | 0.01 | 0.00 | 81 | 1026.1 |
| 20260901091017 | 60 | 139 | 0.0 | 2.0 | 0.00 | 0.01 | 0.00 | 81 | 1026.1 |
| 20260901090035 | 60 | 139 | 0.0 | 2.0 | 0.00 | 0.01 | 0.00 | 81 | 1026.1 |
| 20260901085015 | 60 | 139 | 0.0 | 1.0 | 0.00 | 0.01 | 0.00 | 81 | 1026.1 |
| 20260901084016 | 60 | 140 | 0.0 | 1.0 | 0.00 | 0.01 | 0.00 | 82 | 1026.3 |
| 20260901083036 | 60 | 143 | 1.0 | 3.0 | 0.00 | 0.01 | 0.00 | 82 | 1026.4 |
| 20260901082017 | 60 | 145 | 0.0 | 1.0 | 0.00 | 0.01 | 0.00 | 83 | 1026.4 |
| 20260901081017 | 60 | 145 | 0.0 | 1.0 | 0.00 | 0.01 | 0.00 | 83 | 1026.6 |
| 20260901080014 | 60 | 145 | 0.0 | 1.0 | 0.00 | 0.01 | 0.00 | 82 | 1026.7 |